Tehachapi, CA

6:34 AM PDT on August 16, 2017 (GMT -0700)
Tehachapi Municipal

Weather History for KTSP - December, 2011

Change the Weather History Date:

Thursday, December 22, 2011

  Actual Average Record
Temperature  
Mean Temperature 36 °F -  
Max Temperature 48 °F 49 °F 57 °F (2012)
Min Temperature 23 °F 28 °F 23 °F (2011)
Degree Days  
Heating Degree Days 30    
Moisture  
Dew Point 0 °F    
Average Humidity 28    
Maximum Humidity 93    
Minimum Humidity 9    
Precipitation  
Precipitation 0.00 in - - ()
Sea Level Pressure  
Sea Level Pressure 30.28 in    
Wind  
Wind Speed 11 mph (ESE)    
Max Wind Speed 23 mph    
Max Gust Speed 31 mph    
Visibility 9 miles    
Events      
Averages and records for this station are not official NWS values.
T = Trace of Precipitation, MM = Missing Value Source: NWS Daily Summary

Daily Weather History Graph

Daily Weather History Graph

Search for Another Location

Airport or City:

Trip Planner

Search our weather history database for the weather conditions in past years. The results will help you decide how hot, cold, wet, or windy it might be!

Date:

Astronomy

Dec. 22, 2011 Rise Set
Actual Time 6:58 AM PST 4:46 PM PST
Civil Twilight 6:30 AM PST 5:14 PM PST
Nautical Twilight 5:58 AM PST 5:46 PM PST
Astronomical Twilight 5:27 AM PST 6:17 PM PST
Moon 4:48 AM PST (12/22) 3:00 PM PST (12/22)
Length of Visible Light 10h 43m
Length of Day
9h 47m
Waning Crescent, 5% of the Moon is Illuminated
Dec 22
Waning Crescent
Dec 24
New
Dec 31
First Quarter
Jan 8
Full
Jan 16
Last Quarter

Hourly Weather History & Observations

Time (PST) Temp. Windchill Dew Point Humidity Pressure Visibility Wind Dir Wind Speed Gust Speed Precip Events Conditions
12:15 AM 24.8 °F 17.9 °F 19.4 °F 80% 30.11 in 5.0 mi ENE 5.8 mph - N/A   Haze
12:35 AM 24.8 °F - 19.4 °F 80% 30.12 in 4.0 mi Calm Calm - N/A   Clear
12:55 AM 23.0 °F - 21.2 °F 93% 30.13 in 3.0 mi Calm Calm - N/A   Clear
1:15 AM 24.8 °F 16.9 °F 19.4 °F 80% 30.13 in 5.0 mi SE 6.9 mph - N/A   Clear
1:35 AM 26.6 °F 16.2 °F 21.2 °F 80% 30.14 in 7.0 mi SE 11.5 mph - N/A   Clear
1:55 AM 30.2 °F 20.2 °F 21.2 °F 69% 30.15 in 7.0 mi SE 12.7 mph - N/A   Clear
2:15 AM 32.0 °F 23.6 °F 17.6 °F 55% 30.15 in 8.0 mi ESE 10.4 mph - N/A   Clear
2:35 AM 32.0 °F 23.0 °F 15.8 °F 51% 30.16 in 10.0 mi SE 11.5 mph - N/A   Clear
3:15 AM 33.8 °F 25.8 °F 12.2 °F 41% 30.16 in 10.0 mi SE 10.4 mph - N/A   Clear
3:35 AM 32.0 °F 22.5 °F 12.2 °F 44% 30.16 in 10.0 mi ESE 12.7 mph - N/A   Clear
3:55 AM 32.0 °F 24.2 °F 12.2 °F 44% 30.18 in 10.0 mi SE 9.2 mph - N/A   Clear
4:15 AM 32.0 °F 23.0 °F 10.4 °F 41% 30.19 in 10.0 mi ESE 11.5 mph - N/A   Clear
4:35 AM 32.0 °F 23.0 °F 10.4 °F 41% 30.20 in 10.0 mi ESE 11.5 mph - N/A   Clear
5:35 AM 32.0 °F 19.2 °F 8.6 °F 38% 30.21 in 10.0 mi East 23.0 mph 27.6 mph N/A   Clear
6:15 AM 32.0 °F 20.5 °F 6.8 °F 35% 30.23 in 10.0 mi SE 18.4 mph 26.5 mph N/A   Clear
6:35 AM 32.0 °F 20.1 °F 6.8 °F 35% 30.24 in 10.0 mi SE 19.6 mph 25.3 mph N/A   Clear
6:55 AM 33.8 °F 23.5 °F -0.4 °F 23% 30.25 in 8.0 mi ESE 16.1 mph 26.5 mph N/A   Clear
7:15 AM 33.8 °F 23.5 °F -0.4 °F 23% 30.26 in 9.0 mi ESE 16.1 mph 26.5 mph N/A   Clear
7:35 AM 32.0 °F 19.5 °F 1.4 °F 27% 30.26 in 9.0 mi SE 21.9 mph 27.6 mph N/A   Clear
7:55 AM 32.0 °F 19.8 °F 1.4 °F 27% 30.28 in 8.0 mi ESE 20.7 mph 29.9 mph N/A   Clear
8:15 AM 35.6 °F 24.8 °F 1.4 °F 24% 30.28 in 9.0 mi SE 19.6 mph 26.5 mph N/A   Clear
8:35 AM 37.4 °F 28.2 °F -2.2 °F 19% 30.29 in 8.0 mi ESE 16.1 mph 23.0 mph N/A   Clear
8:55 AM 37.4 °F 27.2 °F -0.4 °F 20% 30.30 in 8.0 mi SE 19.6 mph 23.0 mph N/A   Clear
9:15 AM 37.4 °F 27.5 °F -0.4 °F 20% 30.31 in 8.0 mi SE 18.4 mph 25.3 mph N/A   Clear
9:35 AM 39.2 °F 30.5 °F -0.4 °F 19% 30.31 in 9.0 mi SE 16.1 mph 24.2 mph N/A   Clear
9:55 AM 39.2 °F 29.8 °F -0.4 °F 19% 30.31 in 7.0 mi SE 18.4 mph 26.5 mph N/A   Clear
10:15 AM 42.8 °F 34.3 °F -4.0 °F 14% 30.31 in 8.0 mi SE 19.6 mph 26.5 mph N/A   Clear
10:35 AM 42.8 °F 34.5 °F -7.6 °F 12% 30.31 in 7.0 mi SE 18.4 mph 26.5 mph N/A   Clear
10:55 AM 44.6 °F 36.4 °F -7.6 °F 11% 30.30 in 8.0 mi ESE 20.7 mph 27.6 mph N/A   Clear
11:15 AM 44.6 °F 36.1 °F -4.0 °F 13% 30.30 in 7.0 mi SE 21.9 mph 31.1 mph N/A   Clear
11:55 AM 46.4 °F 39.2 °F -7.6 °F 10% 30.30 in 8.0 mi ESE 18.4 mph 25.3 mph N/A   Clear
12:15 PM 46.4 °F 38.7 °F -7.6 °F 10% 30.30 in 7.0 mi East 20.7 mph 26.5 mph N/A   Clear
12:35 PM 46.4 °F 40.7 °F -7.6 °F 10% 30.29 in 8.0 mi ESE 12.7 mph 23.0 mph N/A   Clear
12:55 PM 46.4 °F 38.5 °F -7.6 °F 10% 30.29 in 9.0 mi ESE 21.9 mph 28.8 mph N/A   Clear
1:15 PM 46.4 °F 40.4 °F -7.6 °F 10% 30.28 in 9.0 mi ESE 13.8 mph 25.3 mph N/A   Clear
1:35 PM 46.4 °F 39.2 °F -7.6 °F 10% 30.28 in 8.0 mi East 18.4 mph 25.3 mph N/A   Clear
1:55 PM 48.2 °F - -7.6 °F 10% 30.28 in 8.0 mi East 18.4 mph 24.2 mph N/A   Clear
2:15 PM 46.4 °F 39.2 °F -9.4 °F 9% 30.28 in 9.0 mi East 18.4 mph 25.3 mph N/A   Clear
2:35 PM 46.4 °F 40.1 °F -7.6 °F 10% 30.30 in 9.0 mi East 15.0 mph 25.3 mph N/A   Clear
2:55 PM 46.4 °F 39.5 °F -9.4 °F 9% 30.30 in 10.0 mi East 17.3 mph 24.2 mph N/A   Clear
3:15 PM 46.4 °F 40.7 °F -7.6 °F 10% 30.31 in 8.0 mi ENE 12.7 mph 21.9 mph N/A   Clear
3:35 PM 44.6 °F 38.4 °F -9.4 °F 10% 30.31 in 10.0 mi East 12.7 mph 23.0 mph N/A   Clear
4:15 PM 44.6 °F 38.4 °F -9.4 °F 10% 30.31 in 9.0 mi East 12.7 mph 19.6 mph N/A   Clear
4:35 PM 41.0 °F 34.3 °F -9.4 °F 12% 30.32 in 10.0 mi East 11.5 mph 19.6 mph N/A   Clear
4:55 PM 39.2 °F 33.0 °F -7.6 °F 14% 30.33 in 9.0 mi East 9.2 mph - N/A   Clear
5:15 PM 37.4 °F 31.4 °F -9.4 °F 13% 30.34 in 10.0 mi East 8.1 mph - N/A   Clear
5:35 PM 32.0 °F 24.8 °F -5.8 °F 20% 30.34 in 10.0 mi SE 8.1 mph - N/A   Clear
5:55 PM 32.0 °F - -7.6 °F 18% 30.35 in 10.0 mi Calm Calm - N/A   Clear
6:15 PM 32.0 °F 28.7 °F -5.8 °F 20% 30.35 in 10.0 mi NE 3.5 mph - N/A   Clear
6:35 PM 28.4 °F 22.2 °F -4.0 °F 25% 30.36 in 10.0 mi East 5.8 mph - N/A   Clear
6:55 PM 26.6 °F 18.2 °F -4.0 °F 26% 30.37 in 10.0 mi SE 8.1 mph - N/A   Clear
7:15 PM 26.6 °F 19.1 °F -4.0 °F 26% 30.37 in 10.0 mi ESE 6.9 mph - N/A   Clear
7:35 PM 28.4 °F 23.3 °F -5.8 °F 23% 30.37 in 10.0 mi ESE 4.6 mph - N/A   Clear
7:55 PM 28.4 °F 24.6 °F -5.8 °F 23% 30.39 in 10.0 mi ESE 3.5 mph - N/A   Clear
8:15 PM 26.6 °F 21.2 °F -5.8 °F 24% 30.39 in 10.0 mi East 4.6 mph - N/A   Clear
8:35 PM 28.4 °F 23.3 °F -7.6 °F 21% 30.40 in 10.0 mi East 4.6 mph - N/A   Clear
8:55 PM 23.0 °F 14.7 °F -5.8 °F 28% 30.40 in 10.0 mi ESE 6.9 mph - N/A   Clear
9:15 PM 26.6 °F 20.0 °F -7.6 °F 22% 30.41 in 10.0 mi East 5.8 mph - N/A   Clear
9:35 PM 24.8 °F 20.5 °F -7.6 °F 24% 30.42 in 10.0 mi ESE 3.5 mph - N/A   Clear
9:55 PM 24.8 °F - -5.8 °F 26% 30.43 in 10.0 mi Calm Calm - N/A   Clear
10:15 PM 23.0 °F - -4.0 °F 31% 30.43 in 10.0 mi Calm Calm - N/A   Clear
10:35 PM 24.8 °F 19.1 °F -4.0 °F 28% 30.44 in 10.0 mi ESE 4.6 mph - N/A   Clear
11:15 PM 21.2 °F - -4.0 °F 33% 30.44 in 10.0 mi Calm Calm - N/A   Clear
11:35 PM 21.2 °F 13.6 °F -4.0 °F 33% 30.44 in 10.0 mi SE 5.8 mph - N/A   Clear